Flag for U.S.A. Weather past 2 weeks in Garden Grove, California, U.S.A.

Now
82 °F

Sunny.


Feels Like: 80 °F
Forecast: 53 / 82 °F
Wind: 8 mph from Southeast

Location: Fullerton Municipal Airport

Current Time: Jan 25, 2015 at 11:23:37 AM

Latest Report: Jan 25, 2015 at 10:53 AM


Visibility: 10 mi

Pressure: 30.01 "Hg

Humidity: 12%

Dew point: 25 °F

Location of Garden GroveLocation

Historic Weather in Garden Grove — Graph

°F

Garden Grove temperature yesterday

Maximum temperature yesterday: 84 °F (at 2:53 PM)
Minimum temperature yesterday: 50 °F (at 2:53 AM)
Average temperature yesterday: 68 °F

Past Weeks' High & Low Weather Summary

 TemperatureHumidityPressure
High84 °F (Jan 24, 2:53 PM)96% (Jan 12, 4:53 AM)30.24 "Hg (Jan 12, 4:53 AM)
Low46 °F (Jan 16, 5:53 AM)9% (Jan 23, 2:53 PM)29.89 "Hg (Jan 20, 2:53 PM)
Average61 °F57%30.09 "Hg
* Reported Jan 10 9:53 AM — Jan 25 9:53 AM, Garden Grove, Weather by CustomWeather, © 2014

Note: Actual official high and low records may vary slightly from our data, if they occured in-between our weather recording intervals... More about our weather records

Advertising

Garden Grove weather history for previous 24 hours

 ConditionsComfort  
Time TempWeatherWind HumidityBarometerVisibility
9:53 AM
Jan 25
80 °FSunny.3 mph12%30.02 "Hg10 mi
8:53 AM69 °FSunny.No wind26%30.02 "Hg10 mi
7:53 AM57 °FSunny.No wind39%30.01 "Hg10 mi
6:53 AM54 °FSunny.No wind38%30.01 "Hg10 mi
5:53 AM54 °FClear.5 mph40%30.00 "Hg10 mi
4:53 AM55 °FClear.No wind40%30.00 "Hg10 mi
3:53 AM59 °FClear.No wind28%30.00 "Hg10 mi
2:53 AM64 °FClear.6 mph19%30.00 "Hg10 mi
1:53 AM69 °FClear.7 mph14%30.01 "Hg10 mi
12:53 AM71 °FClear.10 mph13%30.01 "Hg10 mi
11:53 PM
Jan 24
69 °FClear.9 mph15%30.03 "Hg10 mi
10:53 PM71 °FClear.8 mph14%30.03 "Hg10 mi
9:53 PM71 °FClear.No wind14%30.02 "Hg10 mi
8:53 PM72 °FClear.7 mph13%30.02 "Hg10 mi
7:53 PM73 °FClear.10 mph12%30.01 "Hg10 mi
6:53 PM69 °FClear.6 mph17%29.99 "Hg10 mi
5:53 PM75 °FClear.8 mph12%29.98 "Hg10 mi
4:53 PM78 °FSunny.5 mph11%29.97 "Hg10 mi
3:53 PM82 °FSunny.8 mph9%29.97 "Hg10 mi
2:53 PM84 °FSunny.13 mph10%29.96 "Hg10 mi
1:53 PM81 °FSunny.6 mph12%29.96 "Hg10 mi
12:53 PM82 °FSunny.8 mph12%29.99 "Hg10 mi
11:53 AM81 °FSunny.3 mph11%30.01 "Hg10 mi
Weather by CustomWeather, © 2014

See weather overviewHow to use our weather pages